Location: Flatwood
(35.5234°N, 89.8287°W)
Time: 12:43:25
(UTC+00:00)

Daily predictions for brighter satellites

Satellite Brightness Start Highest point End
(mag) Time Altitude Azimuth Time Altitude Azimuth Time Altitude Azimuth
Cosmos 2221 3.4 12:05:24 10° N 12:09:24 48° E 12:13:23 10° SSE
OAO 2 Rocket 3.4 12:05:39 10° W 12:10:51 81° S 12:15:58 10° E
Cosmos 1758 Rocket 3.7 12:08:27 10° SSW 12:12:46 51° W 12:17:03 10° N
Cosmos 1484 Rocket 3.1 12:11:46 10° N 12:14:49 32° WNW 12:17:51 10° SW
BREEZE-M DEB (TANK) 4.2 12:12:24 10° SW 12:16:55 86° SE 12:36:20 10° NE
BREEZE-M DEB (TANK) 2.9 12:17:17 10° SW 12:22:17 86° NW 12:24:46 10° NE
Helios 1A Rocket 3.7 12:20:23 10° SSW 12:23:03 22° W 12:25:43 10° NW
Cosmos 1437 Rocket 3.6 12:19:53 10° N 12:23:12 44° E 12:26:33 10° SSE
ISS -2.6 12:21:23 10° SSW 12:24:37 47° SE 12:27:53 10° ENE
[s.n.66875] 1.5 12:25:27 10° WSW 12:27:58 76° SSE 12:30:30 10° ENE
[s.n.66873] 1.4 12:26:08 10° WSW 12:28:40 77° SSE 12:31:13 10° ENE
[s.n.66876] 1.4 12:26:37 10° WSW 12:29:08 78° SSE 12:31:41 10° ENE
[s.n.66874] 1.4 12:27:25 10° WSW 12:29:56 80° SSE 12:32:29 10° ENE
OAO 3 Copernicus 4.4 12:25:34 10° W 12:30:36 83° S 12:35:36 10° E
[s.n.66872] 1.4 12:28:12 10° WSW 12:30:44 81° SSE 12:33:17 10° ENE
Cosmos 2360 Rocket 2.3 12:25:24 10° NNW 12:30:54 57° WSW 12:36:22 10° S
[s.n.66871] 1.4 12:28:45 10° WSW 12:31:17 82° SSE 12:33:50 10° ENE
Tiangong 0.5 12:31:16 10° SW 12:31:58 11° SW 12:32:40 10° SSW
[s.n.66870] 1.3 12:29:34 10° WSW 12:32:06 84° SSE 12:34:40 10° ENE
[s.n.66869] 1.3 12:30:21 10° WSW 12:32:54 86° SSE 12:35:28 10° ENE
[s.n.66868] 1.3 12:30:59 10° WSW 12:33:31 87° SSE 12:36:04 10° ENE
COSMO-SKYMED 1 3.9 12:30:53 10° SW 12:33:46 18° W 12:36:40 10° NW
CZ-2D R/B 2.6 12:30:46 10° N 12:33:56 78° WNW 12:37:05 10° SSW
Cosmos 405 Rocket 3.9 12:32:03 10° WSW 12:34:04 15° WNW 12:36:05 10° NW
[s.n.66867] 1.3 12:31:46 10° WSW 12:34:19 89° SSE 12:36:53 10° ENE
ATLAS 3B R/B 4.4 12:28:51 10° NNW 12:35:32 30° NE 12:41:54 10° ESE
Cosmos 2333 Rocket 3.0 12:31:57 10° NW 12:37:01 33° WSW 12:42:01 10° SSW
Cosmos 1354 Rocket 4.1 23:09:50 10° SSW 23:15:06 88° ESE 23:20:23 10° NNE
Cosmos 1980 Rocket 2.7 23:12:54 10° S 23:18:09 41° ESE 23:23:24 10° NE
Cosmos 1743 2.3 23:15:08 10° N 23:18:22 82° W 23:21:34 10° S
GEOS 3 Rocket 4.5 23:15:42 10° NNE 23:20:53 51° NW 23:26:02 10° SW
SJ-12 4.3 23:18:06 10° SE 23:21:32 34° ENE 23:24:59 10° N
Cosmos-2242 4.4 23:19:02 10° SE 23:21:51 18° E 23:24:42 10° NE
CORIOLIS 4.1 23:18:10 10° SSE 23:23:27 73° ENE 23:28:47 10° N
Okean 1-7 Rocket 3.6 23:19:44 10° N 23:24:02 54° E 23:28:17 10° SSE
YAOGAN 1 4.2 23:22:40 10° E 23:24:29 13° ENE 23:26:19 10° NE
Cosmos 1602 Rocket 3.5 23:20:17 10° N 23:24:40 87° E 23:28:59 10° S
Cosmos 1898 Rocket 4.4 23:21:34 10° SSE 23:25:52 28° E 23:30:11 10° NE
IRIDIUM 104 4.3 23:24:24 10° N 23:29:38 85° E 23:34:51 10° S
SAR-Lupe-4 3.7 23:28:00 10° SSE 23:31:25 49° ENE 23:34:52 10° N
Meteor 1-25 Rocket 4.3 23:26:29 10° N 23:32:14 63° E 23:37:53 10° SSE
SKYMED 2 4.2 23:29:35 10° NNE 23:33:34 35° E 23:37:32 10° SSE
Cosmos 2263 Rocket 3.2 23:30:03 10° N 23:34:36 24° ENE 23:39:07 10° ESE
Cosmos 2151 3.2 23:30:57 10° NNW 23:35:06 71° W 23:39:14 10° S
SL-16 R/B 4.1 23:31:29 10° N 23:36:59 34° WNW 23:42:26 10° SW
Cosmos 372 Rocket 4.3 23:32:16 10° S 23:37:10 46° ESE 23:42:04 10° NNE
IRS-1C 4.1 23:35:09 10° SSE 23:40:26 73° ENE 23:45:45 10° N
NOSS 2-3 (C) 3.7 23:37:59 10° SW 23:41:28 52° WNW 23:44:53 10° NNE
SAR-Lupe-1 4.0 23:38:59 10° SSE 23:42:30 60° ENE 23:46:04 10° N
Cosmos 1937 Rocket 4.3 23:39:49 10° SSE 23:44:16 30° E 23:47:52 14° NE
Helios 1A Rocket 3.9 23:46:13 18° E 23:46:44 19° E 23:49:13 10° SE
Cosmos 1953 Rocket 4.0 23:44:25 10° N 23:48:38 41° E 23:52:50 10° SSE
MOS 1 Rocket 3.3 23:44:49 10° SSE 23:49:35 69° ENE 23:54:39 10° N
Cosmos 2227 Rocket 2.2 23:46:10 10° NNW 23:51:45 60° ENE 23:57:19 10° SSE
Cosmos 2084 Rocket 3.3 23:48:03 10° NNW 23:52:17 79° ENE 23:56:27 10° SE
EXPRESS MD2 3.6 23:51:04 10° W 23:53:18 33° NNW 23:55:08 18° NNE
CZ-2D R/B 4.1 23:52:21 10° SE 23:56:07 33° ENE 23:59:52 10° N
